Philip, SD

9:07 PM MDT on April 27, 2017 (GMT -0600)
Philip

Weather History for KPHP - January, 2014

Change the Weather History Date:

Saturday, January 11, 2014

  Actual Average Record
Temperature  
Mean Temperature 38 °F 22 °F  
Max Temperature 48 °F 34 °F 67 °F (1990)
Min Temperature 27 °F 9 °F -26 °F (1982)
Degree Days  
Heating Degree Days 27 43  
Month to date heating degree days 503 480  
Since 1 July heating degree days 3526 3415  
Cooling Degree Days 0 0  
Month to date cooling degree days 0 0  
Year to date cooling degree days 0 0  
Moisture  
Dew Point 28 °F    
Average Humidity 65    
Maximum Humidity 85    
Minimum Humidity 45    
Precipitation  
Precipitation 0.00 in 0.01 in 0.28 in (2013)
Month to date precipitation 0.06 0.11  
Year to date precipitation 0.06 0.11  
Sea Level Pressure  
Sea Level Pressure 29.63 in    
Wind  
Wind Speed 11 mph (WSW)    
Max Wind Speed 25 mph    
Max Gust Speed 33 mph    
Visibility 10 miles    
Events      
T = Trace of Precipitation, MM = Missing Value Source: NWS Daily Summary

Daily Weather History Graph

Daily Weather History Graph

Search for Another Location

Airport or City:

Trip Planner

Search our weather history database for the weather conditions in past years. The results will help you decide how hot, cold, wet, or windy it might be!

Date:

Astronomy

Jan. 11, 2014 Rise Set
Actual Time 7:19 AM MST 4:29 PM MST
Civil Twilight 6:47 AM MST 5:01 PM MST
Nautical Twilight 6:11 AM MST 5:37 PM MST
Astronomical Twilight 5:36 AM MST 6:12 PM MST
Moon 1:16 PM MST (1/11) 3:24 AM MST (1/11)
Length of Visible Light 10h 14m
Length of Day
9h 09m
Waxing Gibbous, 83% of the Moon is Illuminated
Jan 11
Waxing Gibbous
Jan 15
Full
Jan 23
Last Quarter
Jan 30
New
Feb 6
First Quarter

Hourly Weather History & Observations

Time (MST) Temp. Windchill Dew Point Humidity Pressure Visibility Wind Dir Wind Speed Gust Speed Precip Events Conditions
12:55 AM 35.1 °F 24.5 °F 28.0 °F 76% 29.70 in 10.0 mi WNW 18.4 mph - N/A   Clear
1:55 AM 35.1 °F 23.5 °F 27.0 °F 72% 29.73 in 10.0 mi NW 21.9 mph 29.9 mph N/A   Clear
2:55 AM 33.1 °F 21.9 °F 26.1 °F 75% 29.76 in 10.0 mi WNW 18.4 mph - N/A   Clear
3:55 AM 33.1 °F 22.2 °F 27.0 °F 78% 29.79 in 10.0 mi NW 17.3 mph - N/A   Clear
4:55 AM 32.0 °F 21.2 °F 26.1 °F 79% 29.81 in 10.0 mi WNW 16.1 mph - N/A   Clear
5:55 AM 30.9 °F 21.7 °F 25.0 °F 79% 29.83 in 10.0 mi West 11.5 mph - N/A   Clear
6:55 AM 28.9 °F 19.2 °F 25.0 °F 85% 29.85 in 10.0 mi West 11.5 mph - N/A   Clear
7:55 AM 27.0 °F 18.7 °F 23.0 °F 85% 29.84 in 10.0 mi WSW 8.1 mph - N/A   Clear
8:55 AM 34.0 °F 27.2 °F 26.1 °F 73% 29.85 in 10.0 mi WNW 8.1 mph - N/A   Clear
9:55 AM 39.0 °F 32.3 °F 28.0 °F 65% 29.83 in 10.0 mi West 10.4 mph - N/A   Clear
10:55 AM 43.0 °F 38.2 °F 27.0 °F 53% 29.79 in 10.0 mi West 8.1 mph - N/A   Clear
11:55 AM 46.0 °F 41.4 °F 26.1 °F 46% 29.73 in 10.0 mi WSW 9.2 mph - N/A   Clear
12:55 PM 46.9 °F - 28.9 °F 50% 29.67 in 10.0 mi SSW 6.9 mph - N/A   Clear
1:55 PM 48.0 °F - 28.0 °F 46% 29.62 in 10.0 mi SSW 11.5 mph - N/A   Clear
2:55 PM 46.9 °F - 28.0 °F 48% 29.60 in 10.0 mi South 8.1 mph - N/A   Clear
3:55 PM 43.0 °F 39.5 °F 28.0 °F 56% 29.57 in 10.0 mi SSE 5.8 mph - N/A   Clear
4:55 PM 41.0 °F 37.1 °F 28.0 °F 60% 29.53 in 10.0 mi Variable 5.8 mph - N/A   Clear
5:55 PM 42.1 °F 37.7 °F 28.0 °F 58% 29.48 in 10.0 mi SSW 6.9 mph 21.9 mph N/A   Clear
6:55 PM 41.0 °F 35.2 °F 28.9 °F 62% 29.46 in 10.0 mi SSW 9.2 mph - N/A   Clear
7:55 PM 42.1 °F 39.2 °F 30.0 °F 62% 29.42 in 10.0 mi South 4.6 mph - N/A   Clear
8:55 PM 46.0 °F 41.0 °F 32.0 °F 58% 29.37 in 10.0 mi WSW 10.4 mph - N/A   Clear
9:55 PM 46.9 °F - 32.0 °F 56% 29.33 in 10.0 mi WSW 15.0 mph - N/A   Clear
10:55 PM 45.0 °F 38.2 °F 32.0 °F 60% 29.33 in 10.0 mi WSW 15.0 mph - N/A   Clear
11:55 PM 43.0 °F 39.5 °F 32.0 °F 65% 29.33 in 10.0 mi WNW 5.8 mph - N/A   Overcast